Theta_e
316 316 316 317 317 316 316 315 315 315 316 316 317 317 317 317 317 308 300 309 313 330 336 332 326 323 318 313 315 312 300 298 301 302 304 308 305 312 311 308 309 310 311 314 315
314 314 314 315 316 317 316 316 316 315 315 315 315 316 316 317 310 305 315 325 329 335 321 321 318 318 311 312 312 308 300 302 308 308 306 308 309 311 308 309 307 310 313 316 314
312 313 314 313 314 314 315 315 316 316 315 315 315 315 316 315 302 299 328 327 327 332 315 319 319 315 307 309 309 307 304 309 309 312 311 310 310 314 309 307 307 307 310 312 311
311 311 311 313 313 313 313 313 315 316 316 315 315 315 316 309 288 301 337 341 338 324 312 309 312 309 306 305 311 304 310 311 311 314 310 309 312 311 311 311 315 311 313 312 311
312 312 311 310 311 312 312 312 313 314 315 315 315 315 309 301 295 305 332 329 325 318 310 305 302 305 302 307 309 305 308 311 312 312 312 313 310 311 311 315 316 313 313 312 312
313 313 312 312 311 310 312 313 312 313 313 314 314 315 304 290 302 308 307 306 306 314 312 307 304 306 300 301 301 307 308 309 311 312 312 310 310 311 312 314 313 309 310 312 312
313 313 313 313 312 312 311 311 312 312 312 312 313 310 302 298 307 306 303 302 304 305 307 312 310 306 302 299 302 301 298 301 304 307 307 311 304 306 311 311 309 308 309 311 312
313 312 312 312 313 313 312 312 311 310 311 312 313 307 297 309 310 307 307 303 302 303 306 310 313 305 299 300 301 297 296 293 301 305 307 303 297 306 310 308 308 309 307 309 310
312 312 311 311 311 313 313 312 311 311 310 311 305 303 294 309 304 307 304 299 301 301 303 309 307 300 299 296 291 292 290 292 296 302 302 301 299 305 309 307 306 308 308 307 308
311 311 311 311 311 312 312 311 310 308 307 307 306 298 299 297 302 303 303 303 301 300 299 300 299 295 293 291 287 289 289 293 293 299 300 299 299 304 308 307 307 308 309 307 307
311 311 311 311 311 311 309 299 293 295 300 296 296 294 299 304 307 304 304 300 301 299 291 296 291 292 294 297 297 296 294 293 297 301 299 298 299 302 306 304 305 305 306 307 307
310 310 310 310 310 311 305 293 297 299 291 299 298 300 304 305 298 302 305 297 296 290 295 294 290 296 301 299 297 296 293 293 297 301 298 298 297 302 303 304 305 307 307 305 308
310 310 310 310 310 302 295 297 303 302 290 294 298 297 298 301 297 298 303 300 295 292 292 290 294 299 300 299 296 295 293 293 294 299 300 297 296 299 303 304 307 307 306 307 308
310 310 310 310 301 296 295 300 301 302 284 288 294 297 299 300 295 302 304 302 297 291 293 292 297 297 297 297 296 290 297 297 296 293 289 297 287 294 299 301 303 304 303 305 308
310 309 309 309 301 297 299 301 305 299 273 290 294 304 301 296 299 298 304 301 295 293 293 290 293 293 294 295 297 294 300 298 297 293 290 294 289 293 297 299 301 303 303 305 308
309 309 309 303 299 300 303 302 298 284 275 287 293 291 291 297 297 300 300 301 301 296 294 293 299 297 296 300 299 300 295 295 294 291 286 292 290 290 294 298 301 302 306 306 307
309 309 307 305 294 300 300 294 283 277 289 285 287 290 290 289 294 295 295 293 291 288 288 292 293 297 298 294 296 295 289 282 281 283 284 293 290 294 299 301 303 303 305 306 308
308 307 305 304 300 302 299 286 277 283 284 291 289 289 286 289 288 290 292 291 295 293 290 287 285 294 298 295 293 293 292 285 280 281 285 293 289 294 302 304 305 305 306 308 309
306 297 298 298 302 299 294 276 278 284 288 286 287 285 285 288 288 288 288 290 295 295 287 287 287 297 298 298 296 292 290 295 287 288 285 289 294 299 302 304 305 305 307 307 309
299 296 293 299 302 300 288 280 284 290 289 288 282 286 282 284 285 285 287 293 294 297 295 291 285 295 297 298 297 292 294 286 286 281 281 287 289 292 297 301 304 305 304 306 307
293 289 294 301 304 293 283 282 286 291 290 287 285 284 284 283 286 285 287 291 295 294 296 291 288 291 295 292 291 289 290 288 289 287 282 282 287 296 298 302 303 304 306 306 308
289 283 294 304 289 288 284 287 291 289 291 289 289 287 286 286 285 284 285 289 296 295 290 292 288 286 290 294 298 295 292 291 287 285 288 287 289 299 299 303 305 305 307 307 309
287 285 296 297 282 284 287 288 289 288 288 288 287 290 290 287 283 286 289 295 295 293 290 293 287 284 285 290 293 292 293 294 290 289 287 288 290 302 303 301 306 304 306 308 308
289 282 285 292 289 286 284 284 285 291 288 289 288 290 288 286 289 286 287 291 294 293 299 294 287 287 285 288 292 289 293 293 292 288 289 290 291 299 302 304 305 305 306 308 309
286 282 287 279 281 283 285 285 284 285 288 289 286 287 286 284 286 286 289 290 293 295 293 288 283 290 293 293 293 293 293 293 292 293 291 293 294 299 303 305 306 307 306 307 308
289 287 290 288 285 283 283 285 285 287 288 286 286 288 289 285 287 286 289 290 288 291 291 288 282 288 290 294 293 291 293 294 295 295 295 295 294 302 308 308 307 308 308 308 309
292 297 291 287 282 279 281 286 285 288 290 291 290 288 286 289 293 294 294 293 293 290 288 286 285 284 284 293 291 287 292 293 295 298 298 293 296 300 304 307 308 307 308 309 310
Wind_Speed
17 15 15 15 13 12 13 13 14 15 16 16 17 17 18 18 17 2 9 11 10 9 7 7 4 5 6 2 4 5 2 6 8 7 9 4 4 3 4 5 2 7 7 6 8
18 19 18 17 17 15 15 15 15 14 15 16 17 17 18 18 4 9 8 10 17 11 6 8 8 6 4 5 6 5 5 11 11 8 8 8 6 14 5 11 7 7 5 2 15
17 17 18 18 18 16 16 16 15 15 15 14 15 16 18 15 6 11 7 19 19 16 8 5 7 8 4 5 6 8 13 23 12 14 5 9 17 11 11 15 11 10 8 6 8
17 17 17 17 17 18 19 19 18 17 16 15 15 15 17 3 11 3 9 2 10 15 11 6 5 7 7 11 13 6 13 19 20 18 5 12 10 17 17 17 18 9 8 10 12
16 17 18 18 18 18 18 18 19 18 16 15 13 13 6 5 11 12 11 5 8 10 12 12 6 7 9 5 5 8 19 17 14 12 14 15 20 21 20 20 19 11 9 16 17
17 17 18 18 18 19 19 17 16 17 17 16 14 11 3 14 7 14 18 8 9 2 8 9 9 9 4 7 9 6 10 13 13 18 17 22 22 13 22 12 17 7 12 15 18
18 18 19 19 19 19 19 19 18 17 18 17 16 10 16 25 8 9 9 4 4 12 13 14 13 7 7 6 5 6 12 14 16 12 22 15 19 22 19 11 13 10 12 15 19
18 18 20 21 21 21 22 20 20 22 20 17 15 12 16 8 14 22 20 21 13 8 8 9 14 13 3 2 7 5 2 8 6 12 16 9 25 20 19 12 17 15 11 12 16
18 17 19 21 22 23 23 23 28 27 22 16 9 8 15 8 10 19 14 13 11 11 5 7 6 7 4 8 5 2 14 14 18 10 7 8 16 11 9 8 13 15 12 12 16
19 18 18 20 21 21 21 26 26 13 3 7 10 2 9 9 7 8 11 20 7 8 5 8 5 6 5 7 14 11 7 13 23 3 11 17 16 20 18 10 14 17 14 12 13
21 18 17 18 20 19 14 8 6 2 1 8 6 8 6 13 10 5 6 12 9 4 10 10 9 20 21 21 13 7 15 16 16 3 8 9 9 17 16 7 12 13 13 13 7
22 21 21 18 17 16 5 2 3 3 13 14 21 24 28 12 10 7 14 9 10 16 14 8 31 15 13 14 15 11 10 20 15 8 7 11 14 17 14 13 12 15 16 4 4
20 20 20 20 18 5 3 6 5 9 7 12 14 11 14 16 14 12 8 7 6 14 24 28 8 19 21 19 18 18 19 16 20 1 6 10 14 14 17 7 11 10 9 6 11
20 19 18 18 7 3 4 1 4 7 5 10 8 8 6 7 16 19 9 7 7 18 17 18 22 21 21 23 17 18 17 19 19 6 9 4 6 5 8 12 7 11 7 9 7
19 19 17 11 7 6 5 8 12 3 6 3 3 4 5 13 1 15 20 8 11 9 10 11 19 24 18 27 19 19 13 11 11 9 5 10 3 8 3 9 11 11 7 5 7
19 19 16 8 2 7 6 9 1 2 10 6 4 12 12 13 16 6 14 12 8 4 9 10 10 24 33 14 19 6 3 2 6 1 11 18 7 6 7 9 7 4 2 7 8
22 21 14 7 5 2 3 4 3 6 4 2 11 17 11 16 6 11 10 18 19 13 15 8 17 6 11 19 6 7 8 2 3 4 7 7 6 16 10 10 9 9 8 9 10
20 20 7 7 3 4 1 1 9 6 11 16 17 15 7 20 10 16 12 16 24 17 12 14 11 24 12 13 18 18 14 8 8 5 5 6 7 12 5 9 9 9 8 10 12
17 3 3 5 5 3 2 3 4 4 7 13 16 7 9 15 9 13 8 13 11 19 8 13 15 4 22 7 17 17 18 14 3 2 3 5 8 11 3 3 3 7 9 9 11
5 4 4 4 6 3 2 5 4 4 9 12 7 6 10 13 10 13 6 18 8 7 5 3 2 7 17 17 19 11 10 9 4 6 4 5 4 7 5 3 3 6 8 7 7
3 4 4 1 3 2 3 4 7 9 10 4 5 7 13 15 4 8 7 8 17 17 11 3 1 3 8 18 22 8 9 5 8 6 7 3 7 7 9 9 11 9 8 12 12
3 4 3 1 1 1 2 3 7 9 8 9 6 9 12 11 7 7 11 12 12 16 8 6 6 6 14 3 19 18 18 13 9 8 6 4 10 4 8 11 11 10 10 8 10
4 3 3 6 2 2 3 6 6 7 5 3 5 3 9 8 6 3 6 10 17 14 13 8 5 8 7 4 4 23 19 21 4 4 6 10 11 1 5 8 8 10 9 9 10
2 4 5 2 1 3 5 5 4 7 11 6 6 6 10 10 9 7 11 8 14 18 14 4 5 12 17 7 5 6 20 12 14 10 9 9 2 4 4 8 7 7 8 12 12
3 3 2 4 4 6 3 4 7 8 4 5 3 5 7 6 7 10 14 13 12 13 5 3 5 7 16 21 9 2 9 21 20 18 14 11 9 9 11 10 14 10 9 11 12
1 2 2 4 5 6 4 2 11 10 4 7 3 9 6 7 7 7 13 6 4 7 8 5 5 8 7 16 23 18 5 18 19 15 11 9 9 8 11 7 7 13 14 15 16
3 2 1 2 4 3 3 7 11 12 7 10 14 8 8 11 7 9 9 8 9 7 6 4 4 8 7 11 9 16 28 12 9 16 17 12 9 8 5 11 13 11 15 17 17
Wind_Direction
340 338 336 327 323 320 322 325 324 326 325 328 332 334 332 330 319 279 244 219 188 191 150 133 205 164 122 237 199 134 105 244 237 185 248 247 357 269 289 267 288 206 176 235 145
338 336 334 331 328 325 321 313 311 317 320 328 331 332 329 333 294 250 232 239 219 162 182 169 178 174 185 189 199 156 173 233 220 207 246 287 297 293 328 299 276 275 263 102 144
336 336 333 330 328 324 319 309 302 304 310 319 324 329 328 330 305 252 202 229 234 184 199 182 165 158 206 172 204 189 216 234 273 241 218 278 286 290 279 287 253 262 241 166 159
334 326 324 327 325 323 322 322 317 307 307 309 315 325 322 289 241 243 129 108 233 191 180 175 181 172 209 205 208 253 231 240 249 262 264 255 287 279 281 270 275 246 227 168 180
327 329 328 322 319 319 316 314 311 310 304 301 305 316 345 250 236 255 275 29 66 160 182 192 175 178 214 204 177 208 243 244 265 278 271 275 265 265 280 279 280 272 182 188 191
324 321 320 321 321 315 311 305 298 297 299 299 300 304 227 249 254 266 276 293 243 200 175 178 201 203 235 231 236 240 255 267 259 262 267 267 275 281 274 276 282 204 210 201 200
333 330 322 316 315 313 308 300 300 296 296 292 294 288 253 242 284 311 319 235 200 217 219 204 227 206 183 316 265 246 275 272 266 258 261 275 281 267 275 270 270 250 226 214 208
329 329 326 325 319 310 308 305 298 289 283 277 279 269 258 272 245 260 255 274 251 272 243 232 213 232 194 306 341 352 284 266 245 237 257 178 264 271 270 265 268 267 238 213 222
325 322 323 322 318 315 308 306 299 286 274 261 262 232 272 278 224 242 213 224 237 226 224 255 145 185 126 212 295 247 259 278 284 236 262 189 274 270 263 235 259 269 260 221 226
325 323 320 318 319 315 311 313 299 302 232 193 226 224 246 230 220 227 184 204 207 188 192 186 201 182 169 159 209 215 235 248 252 251 222 253 260 274 277 268 271 279 273 226 222
325 323 320 318 318 317 326 338 6 16 208 212 208 256 256 18 294 217 161 165 201 198 176 174 196 211 202 210 216 194 226 245 258 214 248 245 261 276 280 281 270 272 263 241 242
322 322 322 319 313 314 343 249 256 322 297 265 253 241 263 285 298 290 134 146 178 201 168 172 228 204 200 210 220 231 243 256 286 260 231 268 263 271 282 275 259 252 262 186 145
319 317 319 319 319 334 178 232 293 330 271 278 227 230 214 195 223 248 199 155 171 189 193 200 212 205 201 204 208 223 228 248 250 354 256 283 284 278 283 298 274 258 237 195 198
320 316 318 323 325 316 259 83 302 302 287 272 218 249 200 229 225 225 217 180 203 195 202 233 222 189 201 213 203 229 219 241 254 265 262 131 288 295 276 296 290 277 252 240 154
315 314 314 324 291 276 272 340 320 185 297 233 175 153 245 185 116 217 191 210 197 163 179 210 190 224 220 213 199 233 219 232 247 253 263 255 272 265 253 288 273 265 260 228 153
314 312 315 302 224 249 326 300 296 209 238 293 72 349 3 218 244 303 171 203 172 234 235 224 205 200 218 201 201 173 200 278 265 287 261 266 178 222 225 221 263 256 44 144 134
314 309 301 273 243 125 351 355 188 217 268 206 0 344 347 337 234 245 247 187 183 191 212 198 224 216 168 211 171 172 112 267 287 216 221 236 176 243 261 237 229 240 190 144 130
315 313 283 234 214 245 180 100 227 254 260 335 357 334 22 10 338 332 229 204 214 196 178 199 214 209 183 196 194 205 177 164 201 196 196 167 233 254 238 280 232 252 147 140 142
321 321 289 266 202 128 207 220 237 331 353 350 342 0 349 350 335 351 335 237 229 208 181 197 232 169 190 155 172 199 206 183 20 316 82 212 280 329 319 314 216 139 129 158 148
329 321 276 317 137 133 179 230 279 308 343 348 325 325 334 337 346 354 304 30 327 275 80 284 190 205 201 190 200 163 147 185 194 203 198 269 258 219 241 223 166 145 162 141 134
23 352 274 105 130 108 262 232 311 297 309 304 330 304 304 306 348 336 305 320 25 349 341 239 134 286 140 201 187 161 210 152 154 216 165 184 253 217 203 185 192 201 177 163 160
15 329 298 352 115 342 252 279 323 288 293 278 243 268 277 288 278 276 281 322 16 0 5 282 214 219 221 286 191 194 203 209 170 201 227 156 260 220 211 193 188 180 173 160 163
347 277 326 99 24 339 266 271 255 286 280 286 280 232 283 296 295 234 271 311 315 5 346 327 286 250 337 340 143 192 196 211 138 96 192 187 250 242 173 190 189 151 158 157 159
18 337 322 35 195 351 328 290 283 277 296 245 245 249 281 292 263 248 278 291 308 319 339 324 279 238 219 222 155 176 200 182 187 210 217 222 211 225 159 151 148 177 168 164 167
40 283 330 308 331 311 248 289 319 319 298 303 307 237 266 282 310 242 250 271 288 319 317 37 269 292 271 253 275 192 184 202 206 206 194 220 192 211 187 176 198 176 146 152 162
49 330 310 278 296 306 309 282 312 320 287 302 231 295 298 251 259 295 307 291 297 295 347 345 280 327 263 236 239 249 250 203 209 205 217 181 218 198 191 151 124 179 167 175 179
297 286 215 254 297 299 268 328 300 302 263 264 290 290 292 280 299 226 243 256 248 239 282 285 327 360 280 217 231 254 240 228 210 204 196 195 213 149 143 170 180 178 186 184 183